Location: Vancouver
(49.2500°N, 123.1330°W)
Time: 01:41:00
(UTC-07:00)

ISS - All Passes

Search period start: 27 September 2016 00:00
Search period end: 07 October 2016 00:00
Orbit: 400 x 410 km, 51.6° (Epoch: 27 September)

Date Brightness Start Highest point End Pass type
(mag) Time Alt. Az. Time Alt. Az. Time Alt. Az.
27 Sep - 00:08:54 10° W 00:12:08 56° N 00:15:23 10° ENE night (unlit)
27 Sep - 01:45:34 10° WNW 01:48:51 71° NNE 01:52:08 10° E night (unlit)
27 Sep - 03:22:12 10° W 03:25:13 33° SSW 03:28:13 10° SSE night (unlit)
27 Sep - 21:40:30 10° SW 21:43:34 39° SSE 21:46:40 10° ENE visible
27 Sep - 23:16:44 10° W 23:19:59 65° NNW 23:23:16 10° ENE night (unlit)
28 Sep - 00:53:28 10° WNW 00:56:43 59° N 00:59:58 10° E night (unlit)
28 Sep - 02:30:01 10° WNW 02:33:13 52° SSW 02:36:27 10° SE night (unlit)
28 Sep - 04:08:11 10° WSW 04:09:07 11° SW 04:10:03 10° SSW night (unlit)
28 Sep - 20:48:52 10° SSW 20:51:37 25° SE 20:54:23 10° E visible
28 Sep - 22:24:35 10° WSW 22:27:51 83° NNW 22:31:09 10° ENE night (unlit)
29 Sep - 00:01:19 10° WNW 00:04:33 54° N 00:07:47 10° E night (unlit)
29 Sep - 01:37:53 10° WNW 01:41:10 78° SSW 01:44:27 10° ESE night (unlit)
29 Sep - 03:14:57 10° W 03:17:16 18° SW 03:19:35 10° S night (unlit)
29 Sep - 19:57:39 10° S 19:59:43 16° SE 20:01:47 10° E visible
29 Sep - 21:32:30 10° WSW 21:35:45 71° SSE 21:39:01 10° ENE visible
29 Sep - 23:09:08 10° W 23:12:21 54° N 23:15:36 10° ENE night (unlit)
30 Sep - 00:45:46 10° WNW 00:49:04 78° NNE 00:52:21 10° ESE night (unlit)
30 Sep - 02:22:28 10° W 02:25:21 28° SW 02:28:13 10° SSE night (unlit)
30 Sep - 20:40:33 10° SW 20:43:41 47° SSE 20:46:52 10° ENE visible
30 Sep - 22:16:55 10° W 22:20:10 61° N 22:23:26 10° ENE visible
30 Sep - 23:53:38 10° WNW 23:56:54 62° N 00:00:09 10° E night (unlit)
01 Oct - 01:30:12 10° WNW 01:33:20 44° SSW 01:36:30 10° SE night (unlit)
01 Oct - 19:48:48 10° SSW 19:51:41 30° SE 19:54:35 10° E visible
01 Oct - 21:24:43 10° WSW 21:28:00 75° NNW 21:31:16 10° ENE visible
01 Oct - 23:01:28 10° WNW 23:04:41 55° N 23:07:56 10° E night (unlit)
02 Oct - 00:38:01 10° WNW 00:41:17 68° SSW 00:44:32 10° ESE night (unlit)
02 Oct - 02:15:20 10° W 02:17:18 15° SW 02:19:16 10° S night (unlit)
02 Oct - 18:57:21 10° S 18:59:43 19° SE 19:02:06 10° E daylight
02 Oct - 20:32:34 10° WSW 20:35:50 81° SSE 20:39:06 10° ENE visible
02 Oct - 22:09:15 10° W 22:12:28 53° N 22:15:42 10° ENE visible
02 Oct - 23:45:51 10° WNW 23:49:08 86° NNE 23:52:26 10° ESE night (unlit)
03 Oct - 01:22:39 10° W 01:25:22 24° SW 01:28:04 10° SSE night (unlit)
03 Oct - 18:06:39 10° SSE 18:07:49 11° SE 18:08:59 10° ESE daylight
03 Oct - 19:40:31 10° SW 19:43:43 55° SSE 19:46:56 10° ENE visible
03 Oct - 21:17:00 10° W 21:20:14 57° N 21:23:29 10° ENE visible
03 Oct - 22:53:41 10° WNW 22:56:57 67° NNE 23:00:13 10° E night (unlit)
04 Oct - 00:30:17 10° W 00:33:21 37° SSW 00:36:25 10° SE night (unlit)
04 Oct - 18:48:38 10° SW 18:51:39 35° SSE 18:54:39 10° E daylight
04 Oct - 20:24:45 10° W 20:28:01 69° NNW 20:31:16 10° ENE visible
04 Oct - 22:01:30 10° WNW 22:04:44 57° N 22:07:58 10° E visible
04 Oct - 23:38:01 10° WNW 23:41:16 58° SSW 23:44:29 10° SE night (unlit)
05 Oct - 01:15:44 10° WSW 01:17:12 12° SW 01:18:41 10° SSW night (unlit)
05 Oct - 17:57:01 10° SSW 17:59:37 22° SE 18:02:14 10° E daylight
05 Oct - 19:32:32 10° WSW 19:35:48 89° NNW 19:39:05 10° ENE visible
05 Oct - 21:09:15 10° WNW 21:12:28 53° N 21:15:41 10° E visible
05 Oct - 22:45:50 10° WNW 22:49:07 85° SSW 22:52:23 10° ESE visible
06 Oct - 00:22:46 10° W 00:25:16 20° SW 00:27:45 10° S night (unlit)
06 Oct - 17:05:53 10° S 17:07:39 14° SE 17:09:25 10° ESE daylight
06 Oct - 18:40:24 10° WSW 18:43:38 64° SSE 18:46:52 10° ENE daylight
06 Oct - 20:16:58 10° W 20:20:12 55° N 20:23:26 10° ENE visible
06 Oct - 21:53:37 10° WNW 21:56:54 72° NNE 22:00:10 10° E visible
06 Oct - 23:30:16 10° W 23:33:14 32° SSW 23:36:11 10° SSE night (unlit)
